Regional Weather Roundup
Issued by NWS Goodland, KS

Home | Current Version | Previous Version | Text Only | Print | Product List | Glossary On
Versions: 1 2 3 4 5 6 7 8 9 10 11 12 13 14 15 16 17 18 19 20 21 22 23 24 25 26 27 28 29 30 31 32 33 34 35 36 37 38 39 40 41 42 43 44 45 46 47 48 49 50
000
ASUS43 KGLD 180808
RWRGLD

GOODLAND FORECAST AREA HOURLY WEATHER ROUNDUP
NATIONAL WEATHER SERVICE GOODLAND KS
100 AM MST WED JAN 18 2017

...OFFICIAL OBSERVATIONS...

CITY           SKY/WX    TMP DP  RH WIND       PRES   REMARKS
GOODLAND KS    CLEAR     33  30  88 SW8       30.00F
HILL CITY KS   CLEAR     34  30  85 SW8       30.08R
IMPERIAL NEB   CLOUDY    30  26  85 SW10      30.00F
MCCOOK NEB     CLOUDY    27  26  96 SW7       30.04S
AKRON CO       CLOUDY    27  21  78 W9        29.98F
BURLINGTON CO  CLOUDY    30  27  88 SW9       30.00F
LIMON CO       CLOUDY    15  13  91 N6        30.00F
$$

...UNOFFICIAL OBSERVATIONS...

CITY           SKY/WX    TMP DP  RH WIND       PRES   REMARKS
LENORA KS        N/A     32  32 100 SW7         N/A
NORTON KS      CLEAR     28  25  86 SW7       30.05S
SHARON SPRINGS   N/A     34  30  86 S14         N/A
TRENTON NEB      N/A     28  32 100 W5          N/A
KIT CARSON CO    N/A     26  24  90 CALM        N/A
YUMA CO        FAIR      14  12  92 W10       29.98F WCI   1
$$



USA.gov is the U.S. government's official web portal to all federal, state and local government web resources and services.